Nacogdoches, TX

8:32 PM CDT on October 22, 2017 (GMT -0500)
Mangham Regional

Weather History for KOCH - November, 2011

Change the Weather History Date:

Tuesday, November 22, 2011

  Actual Average Record
Temperature  
Mean Temperature 62 °F -  
Max Temperature 71 °F 64 °F 80 °F (1999)
Min Temperature 53 °F 43 °F 30 °F (2000)
Degree Days  
Heating Degree Days 3    
Growing Degree Days 12 (Base 50)    
Moisture  
Dew Point 56 °F    
Average Humidity 83    
Maximum Humidity 94    
Minimum Humidity 72    
Precipitation  
Precipitation 0.96 in - - ()
Sea Level Pressure  
Sea Level Pressure 30.00 in    
Wind  
Wind Speed 11 mph (NW)    
Max Wind Speed 17 mph    
Max Gust Speed 23 mph    
Visibility 10 miles    
Events Thunderstorm    
Averages and records for this station are not official NWS values.
T = Trace of Precipitation, MM = Missing Value Source: NWS Daily Summary

Daily Weather History Graph

Daily Weather History Graph

Search for Another Location

Airport or City:

Trip Planner

Search our weather history database for the weather conditions in past years. The results will help you decide how hot, cold, wet, or windy it might be!

Date:

Astronomy

Nov. 22, 2011 Rise Set
Actual Time 6:52 AM CST 5:16 PM CST
Civil Twilight 6:26 AM CST 5:43 PM CST
Nautical Twilight 5:56 AM CST 6:12 PM CST
Astronomical Twilight 5:27 AM CST 6:41 PM CST
Moon 3:51 AM CST (11/22) 3:11 PM CST (11/22)
Length of Visible Light 11h 16m
Length of Day
10h 24m
Waning Crescent, 9% of the Moon is Illuminated
Nov 22
Waning Crescent
Nov 25
New
Dec 2
First Quarter
Dec 10
Full
Dec 17
Last Quarter

Hourly Weather History & Observations

Time (CST) Temp. Dew Point Humidity Pressure Visibility Wind Dir Wind Speed Gust Speed Precip Events Conditions
12:15 AM 71.6 °F 66.2 °F 83% 29.95 in 10.0 mi SSE 11.5 mph - N/A   Mostly Cloudy
12:35 AM 71.6 °F 66.2 °F 83% 29.92 in 10.0 mi SSE 11.5 mph - N/A   Mostly Cloudy
12:55 AM 71.6 °F 66.2 °F 83% 29.92 in 10.0 mi South 11.5 mph 17.3 mph N/A   Overcast
1:15 AM 71.6 °F 66.2 °F 83% 29.91 in 10.0 mi South 11.5 mph - N/A   Overcast
1:35 AM 71.6 °F 66.2 °F 83% 29.91 in 10.0 mi South 11.5 mph - N/A   Overcast
1:55 AM 71.6 °F 66.2 °F 83% 29.90 in 10.0 mi South 13.8 mph 19.6 mph N/A   Overcast
2:15 AM 71.6 °F 68.0 °F 88% 29.90 in 10.0 mi South 12.7 mph 16.1 mph N/A   Overcast
2:35 AM 71.6 °F 68.0 °F 88% 29.90 in 10.0 mi South 13.8 mph - N/A   Overcast
2:55 AM 71.6 °F 68.0 °F 88% 29.88 in 10.0 mi South 13.8 mph - N/A   Overcast
3:15 AM 71.6 °F 68.0 °F 88% 29.88 in 10.0 mi South 13.8 mph 18.4 mph N/A   Overcast
3:35 AM 71.6 °F 68.0 °F 88% 29.88 in 10.0 mi South 13.8 mph - N/A   Overcast
3:55 AM 71.6 °F 68.0 °F 88% 29.88 in 10.0 mi SSW 16.1 mph 23.0 mph N/A   Overcast
4:15 AM 71.6 °F 68.0 °F 88% 29.88 in 10.0 mi SW 11.5 mph 17.3 mph N/A   Overcast
4:35 AM 66.2 °F 60.8 °F 83% 29.89 in 7.0 mi NNW 17.3 mph - 0.06 in   Overcast
4:55 AM 64.4 °F 60.8 °F 88% 29.93 in 5.0 mi NW 3.5 mph - 0.46 in Thunderstorm Overcast
5:15 AM 64.4 °F 60.8 °F 88% 29.92 in 10.0 mi North 5.8 mph - 0.08 in   Mostly Cloudy
5:55 AM 64.4 °F 60.8 °F 88% 29.92 in 7.0 mi Calm Calm - 0.14 in   Overcast
6:15 AM 64.4 °F 60.8 °F 88% 29.95 in 5.0 mi SSW 3.5 mph - 0.06 in   Overcast
6:35 AM 62.6 °F 60.8 °F 94% 29.92 in 3.0 mi SE 3.5 mph - 0.19 in   Overcast
6:55 AM 62.6 °F 60.8 °F 94% 29.91 in 9.0 mi Calm Calm - 0.22 in   Overcast
7:15 AM 64.4 °F 60.8 °F 88% 29.96 in 10.0 mi South 9.2 mph - 0.01 in   Overcast
7:35 AM 64.4 °F 60.8 °F 88% 29.97 in 10.0 mi West 4.6 mph - 0.03 in   Overcast
7:55 AM 64.4 °F 60.8 °F 88% 29.96 in 10.0 mi NW 4.6 mph - 0.08 in   Overcast
8:15 AM 64.4 °F 60.8 °F 88% 29.95 in 9.0 mi Calm Calm - 0.04 in   Mostly Cloudy
8:35 AM 64.4 °F 60.8 °F 88% 29.95 in 10.0 mi West 5.8 mph - 0.06 in   Scattered Clouds
8:55 AM 62.6 °F 60.8 °F 94% 29.97 in 10.0 mi NW 10.4 mph - 0.06 in   Mostly Cloudy
9:15 AM 62.6 °F 57.2 °F 82% 29.99 in 10.0 mi NW 13.8 mph 21.9 mph N/A   Overcast
9:35 AM 60.8 °F 55.4 °F 82% 30.02 in 10.0 mi NNW 16.1 mph - N/A   Overcast
9:55 AM 57.2 °F 53.6 °F 88% 30.04 in 10.0 mi NW 13.8 mph 17.3 mph N/A   Overcast
10:15 AM 57.2 °F 53.6 °F 88% 30.05 in 10.0 mi NNW 12.7 mph - N/A   Overcast
10:35 AM 57.2 °F 51.8 °F 82% 30.06 in 10.0 mi NNW 11.5 mph - N/A   Overcast
11:35 AM 55.4 °F 50.0 °F 82% 30.06 in 6.0 mi North 12.7 mph - N/A   Overcast
11:55 AM 53.6 °F 50.0 °F 88% 30.05 in 9.0 mi NNW 8.1 mph - N/A   Overcast
12:15 PM 53.6 °F 50.0 °F 88% 30.04 in 10.0 mi NW 8.1 mph - N/A   Overcast
12:35 PM 53.6 °F 50.0 °F 88% 30.04 in 10.0 mi WNW 6.9 mph - N/A   Overcast
12:55 PM 55.4 °F 50.0 °F 82% 30.03 in 10.0 mi WNW 10.4 mph - N/A   Overcast
1:35 PM 55.4 °F 48.2 °F 77% 30.04 in 10.0 mi NNW 10.4 mph - N/A   Overcast
1:55 PM 55.4 °F 48.2 °F 77% 30.03 in 10.0 mi NW 10.4 mph - N/A   Overcast
2:15 PM 55.4 °F 48.2 °F 77% 30.03 in 10.0 mi NW 10.4 mph - N/A   Overcast
2:35 PM 55.4 °F 48.2 °F 77% 30.03 in 10.0 mi NNW 10.4 mph - N/A   Overcast
2:55 PM 55.4 °F 48.2 °F 77% 30.03 in 10.0 mi NNW 11.5 mph - N/A   Overcast
3:15 PM 55.4 °F 48.2 °F 77% 30.03 in 10.0 mi NNW 11.5 mph - N/A   Overcast
3:35 PM 55.4 °F 48.2 °F 77% 30.04 in 10.0 mi NNW 9.2 mph - N/A   Overcast
3:55 PM 55.4 °F 48.2 °F 77% 30.04 in 10.0 mi NNW 15.0 mph - N/A   Overcast
4:15 PM 55.4 °F 48.2 °F 77% 30.05 in 10.0 mi North 10.4 mph - N/A   Overcast
4:35 PM 55.4 °F 48.2 °F 77% 30.05 in 10.0 mi NNW 12.7 mph - N/A   Overcast
4:55 PM 55.4 °F 48.2 °F 77% 30.07 in 10.0 mi NNW 10.4 mph - N/A   Overcast
5:35 PM 55.4 °F 48.2 °F 77% 30.09 in 10.0 mi NNW 8.1 mph - N/A   Overcast
5:55 PM 55.4 °F 48.2 °F 77% 30.09 in 10.0 mi NNW 6.9 mph - N/A   Overcast
6:15 PM 55.4 °F 48.2 °F 77% 30.10 in 10.0 mi North 9.2 mph - N/A   Overcast
6:35 PM 55.4 °F 48.2 °F 77% 30.11 in 10.0 mi NNW 13.8 mph - N/A   Overcast
6:55 PM 55.4 °F 48.2 °F 77% 30.12 in 10.0 mi NNW 9.2 mph - N/A   Overcast
7:15 PM 55.4 °F 48.2 °F 77% 30.14 in 10.0 mi NNW 10.4 mph 19.6 mph N/A   Overcast
7:35 PM 55.4 °F 46.4 °F 72% 30.15 in 10.0 mi NNW 11.5 mph - N/A   Overcast
7:55 PM 55.4 °F 46.4 °F 72% 30.16 in 10.0 mi NNW 15.0 mph - N/A   Overcast
8:15 PM 55.4 °F 46.4 °F 72% 30.16 in 10.0 mi NNW 8.1 mph - N/A   Overcast
8:35 PM 53.6 °F 46.4 °F 77% 30.18 in 10.0 mi NNW 10.4 mph - N/A   Overcast
8:55 PM 53.6 °F 46.4 °F 77% 30.18 in 10.0 mi North 10.4 mph - N/A   Overcast
9:15 PM 53.6 °F 46.4 °F 77% 30.19 in 10.0 mi North 10.4 mph - N/A   Overcast
9:35 PM 53.6 °F 46.4 °F 77% 30.19 in 10.0 mi North 6.9 mph - N/A   Overcast
9:55 PM 53.6 °F 46.4 °F 77% 30.20 in 10.0 mi North 10.4 mph - N/A   Overcast
10:15 PM 53.6 °F 46.4 °F 77% 30.20 in 10.0 mi North 5.8 mph - N/A   Overcast
10:35 PM 53.6 °F 46.4 °F 77% 30.20 in 10.0 mi North 9.2 mph - N/A   Overcast
10:55 PM 53.6 °F 46.4 °F 77% 30.20 in 10.0 mi North 4.6 mph - N/A   Mostly Cloudy
11:15 PM 51.8 °F 46.4 °F 82% 30.21 in 10.0 mi NNW 5.8 mph - N/A   Clear
11:35 PM 50.0 °F 44.6 °F 82% 30.20 in 10.0 mi Calm Calm - N/A   Clear
11:55 PM 48.2 °F 44.6 °F 87% 30.20 in 10.0 mi Calm Calm - N/A   Clear